Regional Weather Roundup
Issued by NWS

Home | Current Version | Previous Version | Text Only | Print | Product List | Glossary On
Versions: 1 2 3 4 5 6 7 8 9 10 11 12 13 14 15 16 17 18 19 20 21 22 23 24 25 26 27 28 29 30 31 32 33 34 35 36 37 38 39 40 41 42 43 44 45 46 47 48 49 50
430
ASUS43 KMKX 182000
RWRWI

WISCONSIN REGIONAL WEATHER ROUNDUP
NATIONAL WEATHER SERVICE MILWAUKEE/SULLIVAN WI
300 PM CDT WED OCT 18 2017

NOTE: "FAIR" INDICATES FEW OR NO CLOUDS BELOW 12,000 FEET WITH NO
SIGNIFICANT WEATHER AND/OR OBSTRUCTIONS TO VISIBILITY.

WIZ001-002-006>008-014>016-023>028-182100-
NORTHWEST WISCONSIN

CITY           SKY/WX    TMP DP  RH WIND       PRES   REMARKS
SUPERIOR ARPT  SUNNY     70  44  38 W20       29.69F
ASHLAND        CLOUDY    70  43  37 SW20G29   29.68S
HAYWARD        MOSUNNY   67  43  41 SW12      29.75S
SIREN          CLOUDY    68  43  39 SW14      29.78S
CUMBERLAND     MOSUNNY   64  45  48 W14G20    29.81R
RICE LAKE      MOSUNNY   67  46  46 SW12G25   29.82R
CHETEK         MOSUNNY   68  49  51 W12G24    29.81R
LADYSMITH      MOSUNNY   68  49  50 SW16      29.79R
EAU CLAIRE     NOT AVBL
MENOMONIE      CLOUDY    69  49  47 SW14G28   29.82R
NEW RICHMOND   MOSUNNY   66  44  44 W10       29.83S
OSCEOLA        CLOUDY    68  46  44 SW12      29.85S
$$

WIZ003>005-009-010-017-018-182100-
NORTH CENTRAL WISCONSIN

CITY           SKY/WX    TMP DP  RH WIND       PRES   REMARKS
MANITOWISH WTR MOSUNNY   69  44  40 SW16G30   29.71F
ARBOR VITAE    MOSUNNY   72  48  42 S20G28    29.73F
WOODRUFF       MOSUNNY   72  48  42 S20G28    29.73F
RHINELANDER    CLOUDY    69  47  45 S17G25    29.77F
EAGLE RIVER    CLOUDY    69  42  37 SW13G20   29.75F
LAND O LAKES   CLOUDY    70  42  37 S9G20     29.74F
PHILLIPS       CLOUDY    70  48  45 SW15G25   29.74F
TOMAHAWK       SUNNY     70  45  40 SW8       29.79F
MEDFORD        SUNNY     69  47  45 S17G26    29.81F
MERRILL        SUNNY     72  48  42 SW17G28   29.81F
$$

WIZ029-030-035-036-043>047-182100-
CENTRAL WISCONSIN

CITY           SKY/WX    TMP DP  RH WIND       PRES   REMARKS
WAUSAU         LGT RAIN  71  47  42 S16G26    29.80F
MOSINEE        MOSUNNY  N/A N/A N/A S16G25    29.85F
MARSHFIELD     SUNNY     71  44  37 SW23G33   29.82F
STEVENS POINT  SUNNY     70  46  42 SW14G26   29.85F
WAUPACA        SUNNY     74  46  35 S17G24    29.88F
WAUTOMA        SUNNY     72  48  42 S17G25    29.88F
WISC RAPIDS    SUNNY     73  48  41 SW15G25   29.87F
CAMP DOUGLAS   NOT AVBL
$$

WIZ011>013-019>022-031-037>040-048>050-182100-
NORTHEAST WISCONSIN

CITY           SKY/WX    TMP DP  RH WIND       PRES   REMARKS
ANTIGO         CLOUDY    68  48  49 SW16G26   29.83F
SHAWANO        SUNNY     74  46  36 SW14G24   29.84F
OCONTO         SUNNY     71  48  44 SW13G21   29.85F
STURGEON BAY   SUNNY     65  51  60 S18G26    29.87F
GREEN BAY      SUNNY     70  50  49 S18G31    29.87F
MANITOWOC      SUNNY     63  51  65 S20G26    29.92F
APPLETON       SUNNY     72  41  33 SW18G31   29.88F
CLINTONVILLE   NOT AVBL
OSHKOSH        SUNNY     71  48  43 S24G37    29.89F
$$

WIZ032>034-041-042-053>061-182100-
SOUTHWEST WISCONSIN

CITY           SKY/WX    TMP DP  RH WIND       PRES   REMARKS
LA CROSSE      SUNNY     76  47  35 S23G33    29.83F
SPARTA         SUNNY     73  47  39 SW14G22   29.89R
VIROQUA        SUNNY     71  48  43 S16G23    29.89F
BOSCOBEL       SUNNY     75  46  35 S14G21    29.91F
PRAIRIE DU CHI SUNNY     73  43  34 S12G18    29.90F
PLATTEVILLE    SUNNY     71  48  42 S20G25    29.96F
$$

WIZ056-057-062-063-064-067-068-182100-
SOUTH CENTRAL WISCONSIN

CITY           SKY/WX    TMP DP  RH WIND       PRES   REMARKS
REEDSBURG      SUNNY     71  47  43 SW16G30   29.91F
BARABOO/DELLS  SUNNY     70  44  39 S23       29.90F
LONE ROCK      SUNNY     72  48  42 S18G28    29.91F
MINERAL POINT  SUNNY     72  46  40 SW18G26   29.94F
MADISON        MOSUNNY   71  46  40 S21G30    29.94F
MIDDLETON      SUNNY     72  45  38 SW14      29.95F
WATERTOWN      SUNNY     71  44  38 S20G30    29.96F
MONROE         SUNNY     70  41  35 S21G31    29.98F
JANESVILLE     SUNNY     73  41  31 SW21G26   29.98F
$$

WIZ051-052-058>065-066-070>072-182100-
SOUTHEAST WISCONSIN

CITY           SKY/WX    TMP DP  RH WIND       PRES   REMARKS
MILWAUKEE      MOSUNNY   72  45  37 S16G25    29.99F
WAUKESHA       SUNNY     70  43  37 S23G30    29.99F
MILWAUKEE/TIMM SUNNY     72  37  28 SW22G30   29.98F
RACINE         SUNNY     71  44  37 SW16G26   30.01F
BURLINGTON     SUNNY     72  45  38 S18G26    30.00F
KENOSHA        SUNNY     71  44  37 S18G26    30.01F
FOND DU LAC    SUNNY     72  44  36 S14G30    29.91F
SHEBOYGAN      SUNNY     72  44  36 S24G32    29.93F
WEST BEND      SUNNY     70  39  32 S18G30    29.95F
JUNEAU         SUNNY     70  44  39 S24       29.96F
$$

LSZ147-162-182100-
LAKE SUPERIOR

STATION/POSITION TIME  TEMP    WIND        PRES    WAVE
                       AIR SEA DIR/SP/G            HT/PER
                 (UTC) (F)     (DEG/KT/KT) (MB)    (FT/S)
W MID LAKE BUOY  1850   56 53              1002.7F   2/ 5
DEVILS ISLAND    1900   60     240/ 22/ 25 1003.6F
SAXON HARBOR     1940   71     220/ 10/ 19 1004.7R
$$

LMZ867-665-643>646-182100-
LAKE MICHIGAN

STATION/POSITION TIME  TEMP    WIND        PRES    WAVE
                       AIR SEA DIR/SP/G            HT/PER
                 (UTC) (F)     (DEG/KT/KT) (MB)    (FT/S)
S GREEN BAY BUOY 1900   63 58  200/ 17/ 21 1011.5
N MID LAKE BUOY  1850   61 59  190/ 27/ 33 1011.9F   8/ 7
NORTHPORT PIER   1940   62     160/ 12/ 21 1010.8F
KEWAUNEE LAKESHO 1930   58     180/ 20/ 22 1012.2F
SHEBOYGAN LAKESH 1900   57     180/ 22/ 25 1014.4F
PORT WASHINGTON  1930   73     200/ 10/ 20 1015.2F
ATWATER BUOY     1809   63 53  180/ 16/ 19 1016.2F
MILWAUKEE LAKESH 1930   68     200/ 21/ 26   N/A
S MID LAKE BUOY  1850   61 61  180/ 21/ 27 1018.0F   6/ 6
KENOSHA   LAKESH 1900   70     210/ 13/ 24 1016.6
$$

TC  - TEMPERATURE IN CELSIUS
VSB - VISIBILITY IN STATUTE MILES
WCI - WIND CHILL INDEX
HX  - HEAT INDEX





USA.gov is the U.S. government's official web portal to all federal, state and local government web resources and services.